Sexton Summit, OR

7:31 PM PDT on October 14, 2019 (GMT -0700)
Sexton Summit

Weather History for KSXT - August, 2019

Change the Weather History Date:

Wednesday, August 21, 2019

  Actual Average Record
Temperature  
Mean Temperature 58 °F -  
Max Temperature 62 °F 73 °F 87 °F (2003)
Min Temperature 55 °F 52 °F 45 °F (2002)
Degree Days  
Heating Degree Days 7    
Growing Degree Days 8 (Base 50)    
Moisture  
Dew Point 51 °F    
Average Humidity 84    
Maximum Humidity 100    
Minimum Humidity 38    
Precipitation  
Precipitation 0.56 in - - ()
Sea Level Pressure  
Sea Level Pressure 30.07 in    
Wind  
Wind Speed 5 mph (SSW)    
Max Wind Speed 9 mph    
Max Gust Speed -    
Visibility 4 miles    
Events Fog , Rain    
Averages and records for this station are not official NWS values.
T = Trace of Precipitation, MM = Missing Value Source: NWS Daily Summary

Daily Weather History Graph

Daily Weather History Graph

Search for Another Location

Airport or City:

Astronomy

Aug. 21, 2019 Rise Set
Actual Time 6:26 AM PDT 8:06 PM PDT
Civil Twilight 5:56 AM PDT 8:35 PM PDT
Nautical Twilight 5:20 AM PDT 9:11 PM PDT
Astronomical Twilight 4:41 AM PDT 9:50 PM PDT
Moon 11:18 PM PDT (8/21) 12:15 PM PDT (8/21)
Length of Visible Light 14h 39m
Length of Day
13h 39m
Waning Gibbous, 68% of the Moon is Illuminated
Aug 21
Waning Gibbous
Aug 23
Last Quarter
Aug 30
New
Sep 5
First Quarter
Sep 13
Full

Hourly Weather History & Observations

Time (PDT) Temp. Dew Point Humidity Pressure Visibility Wind Dir Wind Speed Gust Speed Precip Events Conditions
12:56 AM 59.0 °F 39.9 °F 49% 29.99 in 10.0 mi WNW 5.8 mph - N/A   Clear
1:56 AM 61.0 °F 39.9 °F 46% 29.97 in 10.0 mi WSW 4.6 mph - N/A   Clear
2:56 AM 61.0 °F 35.1 °F 38% 29.97 in 10.0 mi SW 8.1 mph - N/A   Clear
3:56 AM 60.1 °F 37.9 °F 44% 29.98 in 10.0 mi SSW 5.8 mph - N/A   Clear
4:56 AM 59.0 °F 39.9 °F 49% 29.98 in 10.0 mi South 6.9 mph - N/A   Clear
5:56 AM 61.0 °F 36.0 °F 39% 29.98 in 10.0 mi SSW 8.1 mph - N/A   Mostly Cloudy
6:56 AM 60.1 °F 37.0 °F 42% 30.00 in 10.0 mi South 9.2 mph - N/A   Mostly Cloudy
7:56 AM 60.1 °F 43.0 °F 53% 30.01 in 10.0 mi SSE 6.9 mph - N/A   Overcast
8:56 AM 59.0 °F 44.1 °F 58% 30.03 in 10.0 mi South 4.6 mph - 0.00 in Rain Light Rain
9:44 AM 57.9 °F 46.9 °F 67% 30.14 in 6.0 mi South 5.8 mph - 0.00 in Rain Rain
9:56 AM 55.9 °F 46.9 °F 72% 30.04 in 7.0 mi South 4.6 mph - 0.01 in Rain Light Rain
10:45 AM 59.0 °F 43.0 °F 55% 30.14 in 10.0 mi South 4.6 mph - 0.00 in   Overcast
10:56 AM 61.0 °F 44.1 °F 54% 30.02 in 10.0 mi SE 4.6 mph - 0.00 in   Overcast
11:07 AM 61.0 °F 44.1 °F 54% 30.14 in 10.0 mi Variable 4.6 mph - N/A   Overcast
11:56 AM 57.0 °F 48.0 °F 72% 30.04 in 3.0 mi WSW 8.1 mph - 0.02 in Rain Rain
12:03 PM 55.9 °F 50.0 °F 80% 30.13 in 1.8 mi SSW 6.9 mph - 0.02 in Rain Rain
12:19 PM 55.9 °F 53.1 °F 90% 30.14 in 3.0 mi SSW 9.2 mph - 0.07 in Rain Rain
12:44 PM 55.0 °F 55.0 °F 100% 30.15 in 1.5 mi Variable 5.8 mph - 0.11 in Rain Rain
12:47 PM 55.0 °F 54.0 °F 96% 30.15 in 1.0 mi WNW 4.6 mph - 0.12 in Rain Heavy Rain
12:56 PM 55.0 °F 55.0 °F 100% 30.06 in 0.5 mi West 4.6 mph - 0.15 in Fog , Rain Rain
1:03 PM 55.0 °F 54.0 °F 96% 30.14 in 0.8 mi WSW 4.6 mph - 0.02 in Rain Rain
1:10 PM 55.0 °F 55.0 °F 100% 30.13 in 1.2 mi SW 8.1 mph - 0.04 in Rain Rain
1:26 PM 55.9 °F 55.0 °F 97% 30.12 in 1.2 mi SSW 8.1 mph - 0.07 in Rain Light Rain
1:31 PM 55.9 °F 55.9 °F 100% 30.12 in 0.2 mi SSW 6.9 mph - 0.07 in Fog , Rain Light Rain
1:38 PM 57.0 °F 55.9 °F 96% 30.12 in 0.2 mi SSW 6.9 mph - 0.08 in Fog , Rain Light Rain
1:58 PM 57.0 °F 57.0 °F 100% 30.12 in 1.8 mi SSW 5.8 mph - 0.00 in Rain Light Rain
2:10 PM 57.9 °F 55.9 °F 93% 30.13 in 10.0 mi SSW 6.9 mph - 0.00 in   Mostly Cloudy
2:56 PM 55.9 °F 55.0 °F 97% 30.01 in 5.0 mi Variable 5.8 mph - 0.01 in Rain Light Rain
3:03 PM 55.9 °F 55.0 °F 97% 30.12 in 2.0 mi West 3.5 mph - 0.00 in Rain Light Rain
3:08 PM 55.0 °F 55.0 °F 100% 30.12 in 0.2 mi Calm Calm - 0.01 in Fog , Rain Rain
3:20 PM 55.4 °F 53.6 °F 94% 30.11 in 0.5 mi Variable 3.5 mph - N/A Fog , Rain Heavy Rain
3:27 PM 55.0 °F 54.0 °F 96% 30.11 in 1.0 mi Variable 5.8 mph - 0.13 in Rain Rain
3:44 PM 55.9 °F 55.9 °F 100% 30.11 in 0.5 mi Variable 3.5 mph - 0.21 in Fog , Rain Rain
3:56 PM 55.9 °F 55.0 °F 97% 30.01 in 0.2 mi SSE 3.5 mph - 0.25 in Fog , Rain Light Rain
4:49 PM 57.0 °F 57.0 °F 100% 30.10 in 0.2 mi Calm Calm - 0.09 in Fog , Rain Light Rain
4:56 PM 55.9 °F 55.9 °F 100% 30.00 in 0.2 mi Calm Calm - 0.09 in Fog , Rain Light Rain
5:56 PM 55.0 °F 55.0 °F 100% 30.02 in 0.2 mi Calm Calm - 0.00 in Fog Fog
6:37 PM 55.9 °F 55.9 °F 100% 30.10 in 0.2 mi Calm Calm - 0.00 in Fog Fog
6:56 PM 55.9 °F 55.9 °F 100% 30.01 in 0.2 mi SE 4.6 mph - 0.00 in Fog Fog
7:56 PM 55.9 °F 55.0 °F 97% 30.01 in 0.2 mi SE 4.6 mph - N/A Fog Fog
8:40 PM 55.9 °F 55.9 °F 100% 30.11 in 0.2 mi Calm Calm - N/A Fog Fog
8:56 PM 55.9 °F 55.0 °F 97% 30.03 in 0.2 mi Calm Calm - 0.00 in Fog , Rain Light Rain
9:10 PM 55.9 °F 55.0 °F 97% 30.12 in 0.5 mi Calm Calm - 0.02 in Fog , Rain Light Rain
9:56 PM 55.9 °F 55.9 °F 100% 30.03 in 0.5 mi Variable 3.5 mph - 0.03 in Fog Fog
10:09 PM 55.4 °F 55.4 °F 100% 30.11 in 0.2 mi Variable 4.6 mph - N/A Fog Fog
10:31 PM 55.4 °F 55.4 °F 100% 30.11 in 0.5 mi Calm Calm - N/A Fog Fog
10:44 PM 55.9 °F 55.9 °F 100% 30.11 in 0.2 mi Variable 4.6 mph - N/A Fog Fog
10:56 PM 55.9 °F 55.9 °F 100% 30.01 in 0.2 mi Variable 3.5 mph - N/A Fog Fog
11:42 PM 55.9 °F 55.0 °F 97% 30.11 in 0.5 mi Calm Calm - N/A Fog Fog
11:56 PM 55.9 °F 55.9 °F 100% 30.02 in 0.2 mi Calm Calm - N/A Fog Fog